Tracking 30970 objects as of 3-Jul-2025
HD Live streaming from Space Station
objects crossing your sky now

STARLINK-4302

Track STARLINK-4302 now!
10-day predictions
STARLINK-4302 is classified as:


NORAD ID: 53481
Int'l Code: 2022-099S
Perigee: 568.7 km
Apogee: 571.6 km
Inclination: 97.7 °
Period: 95.9 minutes
Semi major axis: 6941 km
RCS: Unknown
Launch date: August 12, 2022
Source: United States (US)
Launch site: AIR FORCE WESTERN TEST RANGE (AFWTR)
Your satellite tracking list
DELTA 1 R/B(1)
Track 1 satellite(s)




NASA's NSSDC Master Catalog

Two Line Element Set (TLE):
1 53481U 22099S   25183.82386830  .00000453  00000-0  39880-4 0  9994
2 53481  97.6573 305.2192 0002031  74.6690 285.4758 15.01257565158493
Source of the keplerian elements: AFSPC